KG1ZR Weather Reports


time (UTC)temp
F
wind
direction
speed
knots
gust
knots
rain 1hr
in
rain 24hr
in
rain mn
in
humidity
%
barometer
mb
20260905073932 58 52 0.0 0.0 0.00 0.01 0.00 54 1007.3
20260905072932 58 62 0.0 0.0 0.00 0.01 0.00 53 1007.4
20260905071932 58 91 0.0 0.0 0.00 0.01 0.00 53 1007.3
20260905071411 59 59 0.0 0.9 0.00 0.01 0.00 53 1007.3
20260905065927 58 40 0.0 0.9 0.00 0.01 0.00 53 1007.3
20260905064925 59 177 0.0 0.0 0.00 0.01 0.00 53 1007.2
20260905063925 59 177 0.0 0.0 0.00 0.01 0.00 53 1007.1
20260905062925 58 225 0.0 0.0 0.00 0.01 0.00 53 1007.2
20260905061924 58 221 0.0 0.0 0.00 0.01 0.00 54 1007.2
20260905061357 58 291 0.0 0.0 0.00 0.01 0.00 54 1007.3
20260905055923 58 290 0.0 0.0 0.00 0.01 0.00 54 1007.2
20260905054923 58 291 0.0 0.0 0.00 0.01 0.00 54 1007.3
20260905054402 58 290 0.0 0.0 0.00 0.01 0.00 54 1007.2
20260905052921 59 290 0.0 0.0 0.00 0.01 0.00 54 1007.3
20260905051921 59 290 0.0 0.0 0.00 0.01 0.00 54 1007.2
20260905050921 59 291 0.0 0.0 0.00 0.01 0.00 54 1007.1
20260905045921 59 290 0.0 0.0 0.00 0.01 0.00 54 1007.0
20260905044921 60 291 0.0 0.0 0.00 0.01 0.00 54 1007.0
20260905044402 60 291 0.0 0.0 0.00 0.01 0.00 54 1007.1
20260905042921 60 291 0.0 0.0 0.00 0.01 0.00 55 1007.1
20260905041920 60 290 0.0 0.0 0.00 0.01 0.00 55 1007.2
20260905040919 60 291 0.0 0.0 0.00 0.01 0.00 55 1007.2
20260905035916 60 290 0.0 0.0 0.00 0.01 0.01 56 1007.2
20260905034914 60 291 0.0 0.0 0.00 0.01 0.01 56 1007.3
20260905033914 61 291 0.0 0.0 0.00 0.01 0.01 55 1007.3
20260905032911 61 291 0.0 0.0 0.00 0.01 0.01 56 1007.2
20260905031907 62 290 0.0 0.0 0.00 0.01 0.01 55 1007.2
20260905030908 62 291 0.0 0.0 0.00 0.01 0.01 55 1007.2
20260905025907 62 294 0.0 0.0 0.00 0.01 0.01 55 1007.2
20260905025347 62 294 0.0 0.0 0.00 0.01 0.01 54 1007.3
20260905023906 62 284 0.0 0.0 0.00 0.01 0.01 54 1007.4
20260905022906 62 284 0.0 0.0 0.00 0.01 0.01 54 1007.3
20260905021906 62 284 0.0 0.0 0.00 0.01 0.01 54 1007.3
20260905020904 62 221 0.0 0.0 0.00 0.01 0.01 54 1007.3
20260905015904 63 267 0.0 0.0 0.00 0.01 0.01 54 1007.3
20260905014903 63 281 0.0 0.0 0.00 0.01 0.01 54 1007.3
20260905013903 63 281 0.0 0.0 0.00 0.01 0.01 55 1007.3
20260905012903 63 49 0.0 0.0 0.00 0.01 0.01 56 1007.6
20260905011904 63 49 0.0 0.0 0.00 0.01 0.01 56 1007.4
20260905011347 64 49 0.0 0.0 0.00 0.01 0.01 56 1007.4
20260905005903 64 49 0.0 0.0 0.00 0.01 0.01 56 1007.4
20260905004904 64 49 0.0 0.0 0.00 0.01 0.01 56 1007.6
20260905003904 65 49 0.0 0.0 0.00 0.01 0.01 56 1007.5
20260905003345 65 49 0.0 0.0 0.00 0.01 0.01 57 1007.5
20260905001903 65 49 0.0 0.0 0.00 0.01 0.01 58 1007.5
20260905000903 65 49 0.0 0.0 0.00 0.01 0.01 58 1007.3
20260904235904 65 49 0.0 0.9 0.00 0.01 0.01 60 1007.3
20260904234904 66 49 0.0 0.9 0.00 0.01 0.01 61 1007.3
20260904233906 66 49 0.0 0.0 0.00 0.01 0.01 62 1007.3
20260904233354 66 49 0.0 0.0 0.00 0.01 0.01 63 1007.2
20260904231906 67 49 0.0 0.0 0.00 0.01 0.01 64 1007.2
20260904230906 67 49 0.0 0.0 0.00 0.01 0.01 65 1007.1
20260904225907 68 49 0.0 0.0 0.00 0.01 0.01 66 1007.0
20260904224906 68 49 0.0 0.9 0.00 0.01 0.01 66 1007.0
20260904223906 68 49 0.0 1.7 0.00 0.01 0.01 64 1007.0
20260904222906 69 49 0.9 1.7 0.00 0.01 0.01 64 1006.9
20260904221907 69 267 0.0 0.9 0.00 0.01 0.01 62 1006.8
20260904220907 69 267 0.0 0.9 0.01 0.01 0.01 61 1006.7
20260904215904 69 267 0.0 0.9 0.01 0.01 0.01 63 1006.6
20260904215340 69 267 0.0 1.7 0.01 0.01 0.01 66 1006.4
20260904213903 70 267 0.0 1.7 0.01 0.01 0.01 70 1006.4
20260904212905 72 267 0.0 1.7 0.01 0.01 0.01 75 1006.5
20260904211904 74 282 0.9 5.2 0.01 0.01 0.01 75 1006.5
20260904210903 76 288 0.9 5.2 0.00 0.00 0.00 71 1006.5
20260904205903 77 281 0.9 3.5 0.00 0.00 0.00 70 1006.3
20260904204905 77 67 0.0 3.5 0.00 0.00 0.00 71 1006.4
20260904203904 77 296 0.0 2.6 0.00 0.00 0.00 72 1006.5
20260904202904 77 50 0.0 2.6 0.00 0.00 0.00 69 1006.4
20260904201904 78 63 0.9 2.6 0.00 0.00 0.00 67 1006.4
20260904200904 78 242 0.0 1.7 0.00 0.00 0.00 64 1006.4
20260904195904 76 332 0.0 0.9 0.00 0.00 0.00 70 1006.5
20260904194904 76 42 0.0 0.9 0.00 0.00 0.00 72 1006.5
20260904193904 75 42 0.0 5.2 0.00 0.00 0.00 74 1006.6
20260904192904 75 260 2.6 6.1 0.00 0.00 0.00 69 1006.6
20260904191904 74 45 1.7 6.1 0.00 0.00 0.00 72 1006.5
20260904190904 73 44 0.9 6.1 0.00 0.00 0.00 71 1006.6
20260904185904 74 57 1.7 6.1 0.00 0.00 0.00 70 1006.6
20260904184904 76 13 2.6 7.0 0.00 0.00 0.00 68 1006.6
20260904183904 78 39 0.9 5.2 0.00 0.00 0.00 66 1006.5
20260904182903 78 259 0.9 3.5 0.00 0.00 0.00 69 1006.5
20260904181904 78 257 0.9 6.1 0.00 0.00 0.00 70 1006.6
20260904181338 78 294 0.9 7.0 0.00 0.00 0.00 68 1006.5
20260904175904 78 228 1.7 7.0 0.00 0.00 0.00 66 1006.6
20260904174905 77 0 1.7 4.3 0.00 0.00 0.00 71 1006.7
20260904173904 78 252 2.6 7.0 0.00 0.00 0.00 66 1006.8
20260904173825 78 282 1.7 6.1 0.00 0.00 0.00 68 1006.9
20260904171905 78 200 2.6 7.0 0.00 0.00 0.00 69 1006.9
20260904170904 77 278 2.6 7.0 0.00 0.00 0.00 71 1007.1
20260904165904 78 248 1.7 7.8 0.00 0.00 0.00 68 1007.2
20260904164904 77 240 3.5 7.8 0.00 0.00 0.00 70 1007.2
20260904163904 77 182 2.6 6.1 0.00 0.00 0.00 72 1007.3
20260904162904 76 221 2.6 4.3 0.00 0.00 0.00 69 1007.4
20260904161905 76 53 1.7 7.0 0.00 0.00 0.00 74 1007.6
20260904160905 76 320 2.6 7.0 0.00 0.00 0.00 73 1007.6
20260904155904 76 240 1.7 5.2 0.00 0.00 0.00 74 1007.8
20260904154905 75 355 1.7 5.2 0.00 0.00 0.00 74 1007.8
20260904153904 74 240 1.7 4.3 0.00 0.00 0.00 74 1007.9
20260904152904 74 269 1.7 5.2 0.00 0.00 0.00 73 1008.1
20260904151905 73 134 0.9 3.5 0.00 0.01 0.00 72 1008.2
20260904150905 74 300 0.9 7.8 0.00 0.01 0.00 70 1008.3
20260904145904 73 275 0.9 7.8 0.00 0.01 0.00 61 1008.3
20260904145346 72 284 0.9 4.3 0.00 0.01 0.00 51 1008.5
20260904143905 70 275 0.9 4.3 0.00 0.01 0.00 45 1008.5
20260904142904 69 330 0.9 4.3 0.00 0.01 0.00 46 1008.6
20260904141903 67 271 1.7 4.3 0.00 0.01 0.00 46 1008.5
20260904140905 66 189 0.0 2.6 0.00 0.01 0.00 47 1008.6
20260904135903 65 182 0.9 3.5 0.00 0.01 0.00 48 1008.7
20260904134904 65 189 0.9 3.5 0.00 0.01 0.00 48 1008.7
20260904133905 64 267 0.9 2.6 0.00 0.01 0.00 48 1008.8
20260904133344 64 256 0.9 2.6 0.00 0.01 0.00 49 1008.8
20260904131903 63 208 0.9 2.6 0.00 0.01 0.00 49 1008.9
20260904130904 63 285 1.7 3.5 0.00 0.01 0.00 49 1008.9
20260904130338 63 276 0.9 2.6 0.00 0.01 0.00 49 1008.9
20260904124859 62 173 0.9 2.6 0.00 0.01 0.00 49 1008.9
20260904123857 62 173 0.9 2.6 0.00 0.01 0.00 50 1008.9
20260904122858 62 194 0.9 1.7 0.00 0.01 0.00 50 1008.9
20260904121857 62 186 0.9 1.7 0.00 0.01 0.00 50 1008.9
20260904120857 61 36 0.0 1.7 0.00 0.03 0.00 50 1008.9
20260904115857 61 36 0.9 1.7 0.00 0.05 0.00 50 1008.7
20260904114851 61 36 0.9 2.6 0.00 0.08 0.00 50 1008.9
20260904113850 61 36 0.9 2.6 0.00 0.10 0.00 50 1008.8
20260904112849 61 280 0.0 0.9 0.00 0.13 0.00 50 1008.6
20260904111849 61 280 0.0 1.7 0.00 0.19 0.00 50 1008.6
20260904110849 61 280 0.0 2.6 0.00 0.22 0.00 50 1008.6
20260904105849 61 38 0.0 2.6 0.00 0.23 0.00 50 1008.5
20260904104849 61 273 0.0 0.9 0.00 0.23 0.00 50 1008.4
20260904103849 61 273 0.0 2.6 0.00 0.23 0.00 50 1008.3
20260904102850 61 259 0.9 2.6 0.00 0.25 0.00 50 1008.2
20260904101843 61 284 0.0 1.7 0.00 0.28 0.00 50 1008.3
20260904101319 61 284 0.9 1.7 0.00 0.30 0.00 50 1008.2
20260904095844 61 263 0.0 1.7 0.00 0.35 0.00 50 1008.4
20260904095314 61 263 0.0 3.5 0.00 0.38 0.00 50 1008.3
20260904093843 61 263 0.9 3.5 0.00 0.40 0.00 50 1008.3
20260904092843 61 266 1.7 5.2 0.00 0.42 0.00 50 1008.1
20260904091843 61 250 1.7 5.2 0.00 0.43 0.00 50 1008.3
20260904090843 61 296 0.9 3.5 0.00 0.44 0.00 50 1008.3
20260904085843 61 209 0.9 2.6 0.00 0.45 0.00 50 1008.1
20260904084843 60 205 0.0 1.7 0.00 0.45 0.00 50 1008.1
20260904083843 60 205 0.0 1.7 0.00 0.45 0.00 51 1008.2
20260904082844 60 205 0.0 1.7 0.00 0.46 0.00 51 1008.2
20260904081843 60 168 0.0 0.0 0.00 0.46 0.00 51 1008.1
20260904080844 60 168 0.0 0.0 0.00 0.46 0.00 51 1008.1
20260904075844 60 168 0.0 0.0 0.00 0.46 0.00 51 1008.1
20260904074843 60 168 0.0 0.0 0.00 0.46 0.00 51 1008.2